Weather History for KPVU - June, 2013

Change the Weather History Date:

Monday, June 3, 2013

  Actual Average Record
Temperature  
Mean Temperature 66 °F -  
Max Temperature 77 °F 75 °F 93 °F (2004)
Min Temperature 55 °F 48 °F 35 °F (2014)
Cooling Degree Days 1    
Growing Degree Days 16 (Base 50)    
Moisture  
Dew Point 35 °F    
Average Humidity 33    
Maximum Humidity 51    
Minimum Humidity 20    
Precipitation  
Precipitation 0.00 in - - ()
Sea Level Pressure  
Sea Level Pressure 29.94 in    
Wind  
Wind Speed 15 mph (NW)    
Max Wind Speed 23 mph    
Max Gust Speed 31 mph    
Visibility 12 miles    
Events      
Averages and records for this station are not official NWS values.
T = Trace of Precipitation, MM = Missing Value Source: NWS Daily Summary

Daily Weather History Graph

Daily Weather History Graph

Search for Another Location

Airport or City:

Trip Planner

Search our weather history database for the weather conditions in past years. The results will help you decide how hot, cold, wet, or windy it might be!

Date:

Astronomy

Jun. 03, 2013 Rise Set
Actual Time 5:58 AM MDT 8:52 PM MDT
Civil Twilight 5:26 AM MDT 9:24 PM MDT
Nautical Twilight 4:45 AM MDT 10:05 PM MDT
Astronomical Twilight 3:58 AM MDT 10:52 PM MDT
Moon 2:58 AM MDT (6/3) 4:25 PM MDT (6/3)
Length of Visible Light 15h 58m
Length of Day
14h 53m
Waning Crescent, 21% of the Moon is Illuminated
Jun 3
Waning Crescent
Jun 8
New
Jun 16
First Quarter
Jun 23
Full
Jun 29
Last Quarter

Hourly Weather History & Observations

Time (MDT) Temp. Dew Point Humidity Pressure Visibility Wind Dir Wind Speed Gust Speed Precip Events Conditions
12:15 AM 73.4 °F 44.6 °F 36% 29.79 in 10.0 mi NNW 19.6 mph 31.1 mph N/A   Clear
12:35 AM 69.8 °F 44.6 °F 40% 29.79 in 10.0 mi NW 19.6 mph - N/A   Clear
12:55 AM 68.0 °F 44.6 °F 43% 29.80 in 10.0 mi NW 17.3 mph 26.5 mph N/A   Clear
1:15 AM 66.2 °F 44.6 °F 46% 29.81 in 10.0 mi NW 23.0 mph - N/A   Clear
1:55 AM 66.2 °F 42.8 °F 43% 29.84 in 10.0 mi WNW 20.7 mph 26.5 mph N/A   Clear
2:15 AM 66.2 °F 44.6 °F 46% 29.85 in 10.0 mi NW 18.4 mph 28.8 mph N/A   Clear
2:35 AM 66.2 °F 42.8 °F 43% 29.87 in 10.0 mi NW 18.4 mph 25.3 mph N/A   Clear
2:55 AM 64.4 °F 41.0 °F 42% 29.87 in 10.0 mi NW 21.9 mph 28.8 mph N/A   Clear
3:15 AM 64.4 °F 39.2 °F 40% 29.88 in 10.0 mi NW 21.9 mph 27.6 mph N/A   Clear
3:35 AM 64.4 °F 39.2 °F 40% 29.88 in 10.0 mi NW 18.4 mph - N/A   Clear
4:15 AM 62.6 °F 37.4 °F 39% 29.90 in 10.0 mi NW 16.1 mph 24.2 mph N/A   Clear
4:35 AM 62.6 °F 33.8 °F 34% 29.91 in 10.0 mi NW 17.3 mph - N/A   Clear
4:55 AM 62.6 °F 35.6 °F 37% 29.91 in 10.0 mi NNW 12.7 mph - N/A   Clear
5:15 AM 60.8 °F 33.8 °F 36% 29.92 in 10.0 mi North 8.1 mph - N/A   Clear
5:35 AM 60.8 °F 30.2 °F 31% 29.93 in 10.0 mi NW 15.0 mph - N/A   Clear
5:55 AM 60.8 °F 30.2 °F 31% 29.94 in 10.0 mi NNW 11.5 mph - N/A   Clear
6:15 AM 60.8 °F 28.4 °F 29% 29.95 in 10.0 mi NW 5.8 mph - N/A   Clear
6:35 AM 59.0 °F 26.6 °F 29% 29.96 in 10.0 mi NW 8.1 mph - N/A   Clear
6:47 AM 59.0 °F 26.6 °F 29% 29.96 in 15.0 mi WNW 15.0 mph - N/A   Partly Cloudy
7:55 AM 62.6 °F 26.6 °F 26% 29.98 in 15.0 mi WNW 10.4 mph - N/A   Partly Cloudy
8:52 AM 64.4 °F 26.6 °F 24% 30.00 in 15.0 mi NW 8.1 mph - N/A   Partly Cloudy
9:47 AM 64.4 °F 26.6 °F 24% 30.01 in 15.0 mi NW 3.5 mph - N/A   Partly Cloudy
10:47 AM 66.2 °F 26.6 °F 23% 30.02 in 15.0 mi WNW 5.8 mph - N/A   Partly Cloudy
11:35 AM 69.8 °F 28.4 °F 21% 30.03 in 10.0 mi West 5.8 mph - N/A   Clear
11:50 AM 69.8 °F 26.6 °F 20% 30.03 in 15.0 mi West 3.5 mph - N/A   Partly Cloudy
12:50 PM 69.8 °F 28.4 °F 21% 30.02 in 15.0 mi West 9.2 mph - N/A   Partly Cloudy
1:50 PM 71.6 °F 30.2 °F 22% 30.00 in 15.0 mi West 6.9 mph - N/A   Partly Cloudy
3:50 PM 75.2 °F 37.4 °F 25% 29.97 in 15.0 mi WNW 11.5 mph - N/A   Clear
4:50 PM 77.0 °F 35.6 °F 22% 29.96 in 15.0 mi NW 12.7 mph - N/A   Clear
5:50 PM 75.2 °F 35.6 °F 24% 29.97 in 15.0 mi NW 18.4 mph - N/A   Clear
6:55 PM 73.4 °F 42.8 °F 33% 29.97 in 15.0 mi WNW 13.8 mph - N/A   Clear
7:49 PM 71.6 °F 39.2 °F 31% 29.97 in 15.0 mi WNW 13.8 mph - N/A   Clear
8:47 PM 66.2 °F 37.4 °F 35% 29.97 in 15.0 mi WNW 16.1 mph - N/A   Clear
9:15 PM 66.2 °F 37.4 °F 35% 29.98 in 10.0 mi NW 15.0 mph - N/A   Clear
9:35 PM 64.4 °F 35.6 °F 34% 29.98 in 10.0 mi NW 13.8 mph - N/A   Clear
9:55 PM 66.2 °F 35.6 °F 32% 29.99 in 10.0 mi NNW 11.5 mph - N/A   Clear
10:15 PM 64.4 °F 35.6 °F 34% 29.99 in 10.0 mi NNW 10.4 mph - N/A   Clear
10:35 PM 60.8 °F 33.8 °F 36% 30.00 in 10.0 mi NE 3.5 mph - N/A   Clear
10:55 PM 64.4 °F 33.8 °F 32% 30.00 in 10.0 mi ENE 3.5 mph - N/A   Clear
11:15 PM 62.6 °F 35.6 °F 37% 30.00 in 10.0 mi Calm Calm - N/A   Clear
11:35 PM 55.4 °F 37.4 °F 51% 30.00 in 10.0 mi ESE 5.8 mph - N/A   Clear
11:55 PM 57.2 °F 39.2 °F 51% 30.00 in 10.0 mi SE 8.1 mph - N/A   Clear